This demonstration page uses our WeatherBlox Daily Observations layout. Learn more.

Left ArrowRight Arrow

Hourly Observations for November 4, 2016

Temp ( °F °C ) Dew Point ( °F °C ) Humidity (%) Winds ( mph kmh ) Pressure ( in mb ) Visibility ( mi km ) Precip ( " mm )
12:51 am 00:51 Cloudy 63 17.2 55 12.8 76 76 E 8 13 30.01 1016 10 16.0934 N/A
1:51 am 01:51 Cloudy 64 17.8 55 12.8 73 73 ESE 13 20 29.98 1015 10 16.0934 N/A
2:51 am 02:51 Cloudy 64 17.8 55 12.8 73 73 E 12 19 29.99 1016 10 16.0934 N/A
3:51 am 03:51 Cloudy 64 17.8 56 13.3 75 75 E 10 17 29.98 1015 10 16.0934 N/A
4:51 am 04:51 Cloudy 64 17.8 56 13.3 75 75 E 10 17 30 1016 10 16.0934 N/A
5:51 am 05:51 Cloudy 64 17.8 55 12.8 73 73 E 10 17 30.02 1017 10 16.0934 N/A
6:51 am 06:51 Cloudy 64 17.8 56 13.3 75 75 E 12 19 30.02 1017 10 16.0934 N/A
7:51 am 07:51 Cloudy 67 19.4 56 13.3 68 68 E 14 22 30.03 1017 10 16.0934 N/A
8:51 am 08:51 Cloudy 69 20.6 57 13.9 66 66 ESE 17 28 30.02 1017 10 16.0934 N/A
9:51 am 09:51 Mostly Cloudy 71 21.7 57 13.9 61 61 SE 17 28 30.01 1016 10 16.0934 N/A
10:01 am 10:01 Mostly Cloudy with Nearby Thunderstorms 72 22.2 57 13.9 59 59 SE 20 31 29.97 1015 10 16.0934 N/A
10:51 am 10:51 Mostly Cloudy with Nearby Thunderstorms 74 23.3 56 13.3 54 54 SE 17 28 29.98 1015 10 16.0934 N/A
11:51 am 11:51 Mostly Cloudy with Thunderstorms 71 21.7 55 12.8 57 57 SSE 25 41 29.98 1015 8 12.87472 N/A
11:55 am 11:55 Mostly Cloudy with Heavy Thunderstorms 65 18.3 54 12.2 68 68 SW 10 17 29.97 1015 1.5 2.41401 0.02 0.508
12:11 pm 12:11 Cloudy with Light Thunderstorms 63 17.2 55 12.8 76 76 NW 9 15 29.97 1015 10 16.0934 0.14 3.556
12:24 pm 12:24 Cloudy with Heavy Thunderstorms 58 14.4 56 13.3 93 93 W 28 44 30.03 1017 1.75 2.816345 0.2 5.08
12:32 pm 12:32 Cloudy with Heavy Thunderstorms 57 13.9 55 12.8 93 93 NW 21 33 30.03 1017 0.5 0.80467 0.42 10.668
12:36 pm 12:36 Windy with Storms Likely 57 13.9 55 12.8 93 93 NW 23 37 30.03 1017 1 1.60934 0.43 10.922
12:40 pm 12:40 Cloudy with Light Thunderstorms 57 13.9 55 12.8 93 93 NW 16 26 30.03 1017 7 11.26538 0.43 10.922
12:51 pm 12:51 Cloudy with Thunderstorms 61 16.1 56 13.3 84 84 NNW 14 22 29.99 1016 10 16.0934 0.43 10.922
12:59 pm 12:59 Cloudy with Nearby Thunderstorms 63 17.2 57 13.9 81 81 NNW 16 26 30 1016 10 16.0934 N/A
1:26 pm 13:26 Mostly Cloudy 66 18.9 56 13.3 70 70 NW 16 26 29.94 1014 10 16.0934 N/A
1:51 pm 13:51 Sunny 69 20.6 54 12.2 59 59 NW 12 19 29.95 1014 10 16.0934 N/A
2:51 pm 14:51 Sunny 69 20.6 51 10.6 53 53 WNW 16 26 29.94 1014 10 16.0934 N/A
3:51 pm 15:51 Sunny 66 18.9 54 12.2 65 65 WNW 13 20 29.96 1015 10 16.0934 N/A
4:51 pm 16:51 Sunny 65 18.3 54 12.2 68 68 WNW 9 15 29.96 1015 10 16.0934 N/A
5:51 pm 17:51 Clear 62 16.7 54 12.2 75 75 N N/A 29.98 1015 10 16.0934 N/A
6:51 pm 18:51 Clear 59 15 53 11.7 81 81 NNW 6 9 30 1016 10 16.0934 N/A
7:51 pm 19:51 Clear 58 14.4 52 11.1 81 81 NNW 5 7 30.01 1016 10 16.0934 N/A
8:51 pm 20:51 Clear 55 12.8 52 11.1 90 90 ESE 3 6 30.04 1017 10 16.0934 N/A
9:51 pm 21:51 Clear 54 12.2 51 10.6 90 90 N N/A 30.04 1017 10 16.0934 N/A
10:51 pm 22:51 Clear 54 12.2 51 10.6 90 90 N N/A 30.04 1017 10 16.0934 N/A
11:51 pm 23:51 Clear 52 11.1 50 10 93 93 N N/A 30.04 1017 10 16.0934 N/A

Powered by AerisWeather